Time,TemperatureF,DewpointF,PressureIn,WindDirection,WindDirectionDegrees,WindSpeedMPH,WindSpeedGustMPH,Humidity,HourlyPrecipIn,Conditions,Clouds,dailyrainin,SolarRadiationWatts/m^2,SoftwareType,DateUTC
2013-04-13 00:14:00,68.0,28.0,-100.00,SSE,158,1.0,3.0,22,-99.99,,,-99.99,0.000000,,2013-04-13 07:14:00,
2013-04-13 00:23:00,68.0,28.0,-100.00,SE,139,1.0,4.0,22,-99.99,,,-99.99,0.000000,,2013-04-13 07:23:00,
2013-04-13 00:34:00,68.0,28.0,-100.00,South,190,0.0,2.0,22,-99.99,,,-99.99,0.000000,,2013-04-13 07:34:00,
2013-04-13 00:44:00,68.0,27.0,-100.00,SSW,196,2.0,5.0,21,-99.99,,,-99.99,0.000000,,2013-04-13 07:44:00,
2013-04-13 00:53:00,68.0,27.0,-100.00,SSW,196,2.0,5.0,21,-99.99,,,-99.99,0.000000,,2013-04-13 07:53:00,
2013-04-13 01:04:00,69.0,26.0,-100.00,SW,221,2.0,6.0,20,-99.99,,,-99.99,0.000000,,2013-04-13 08:04:00,
2013-04-13 01:14:00,70.0,27.0,-100.00,SW,214,3.0,5.0,20,-99.99,,,-99.99,0.000000,,2013-04-13 08:14:00,
2013-04-13 01:24:00,70.0,27.0,-100.00,SW,214,3.0,5.0,20,-99.99,,,-99.99,0.000000,,2013-04-13 08:24:00,
2013-04-13 01:33:00,70.0,27.0,-100.00,SW,220,2.0,5.0,20,-99.99,,,-99.99,0.000000,,2013-04-13 08:33:00,
2013-04-13 01:44:00,69.0,27.0,-100.00,WSW,250,1.0,3.0,21,-99.99,,,-99.99,0.000000,,2013-04-13 08:44:00,
2013-04-13 01:53:00,67.0,27.0,-100.00,ESE,113,1.0,2.0,22,-99.99,,,-99.99,0.000000,,2013-04-13 08:53:00,
2013-04-13 02:04:00,67.0,27.0,-100.00,ESE,110,1.0,2.0,22,-99.99,,,-99.99,0.000000,,2013-04-13 09:04:00,
2013-04-13 02:13:00,67.0,26.0,-100.00,SE,141,1.0,3.0,21,-99.99,,,-99.99,0.000000,,2013-04-13 09:13:00,
2013-04-13 02:23:00,68.0,25.0,-100.00,SE,127,1.0,4.0,20,-99.99,,,-99.99,0.000000,,2013-04-13 09:23:00,
2013-04-13 02:47:00,68.0,26.0,-100.00,SE,129,2.0,4.0,20,-99.99,,,-99.99,0.000000,,2013-04-13 09:47:00,
2013-04-13 02:53:00,68.0,24.0,-100.00,SE,136,1.0,4.0,19,-99.99,,,-99.99,0.000000,,2013-04-13 09:53:00,
2013-04-13 03:04:00,70.0,24.0,-100.00,South,190,4.0,9.0,18,-99.99,,,-99.99,0.000000,,2013-04-13 10:04:00,
2013-04-13 03:15:00,70.0,24.0,-100.00,South,190,4.0,9.0,18,-99.99,,,-99.99,0.000000,,2013-04-13 10:15:00,
2013-04-13 03:23:00,68.0,25.0,-100.00,WNW,290,1.0,3.0,20,-99.99,,,-99.99,0.000000,,2013-04-13 10:23:00,
2013-04-13 03:40:00,69.0,21.0,-100.00,South,184,6.0,12.0,16,-99.99,,,-99.99,0.000000,,2013-04-13 10:40:00,
2013-04-13 03:45:00,66.0,24.0,-100.00,SSE,147,2.0,4.0,20,-99.99,,,-99.99,0.000000,,2013-04-13 10:45:00,
2013-04-13 04:00:00,68.0,22.0,-100.00,SSW,212,2.0,6.0,17,-99.99,,,-99.99,0.000000,,2013-04-13 11:00:00,
2013-04-13 04:04:00,66.0,24.0,-100.00,ESE,123,2.0,3.0,20,-99.99,,,-99.99,0.000000,,2013-04-13 11:04:00,
2013-04-13 04:13:00,68.0,22.0,-100.00,South,186,5.0,9.0,17,-99.99,,,-99.99,0.000000,,2013-04-13 11:13:00,
2013-04-13 04:20:00,69.0,22.0,-100.00,South,175,3.0,6.0,17,-99.99,,,-99.99,0.000000,,2013-04-13 11:20:00,
2013-04-13 04:23:00,68.0,22.0,-100.00,South,186,5.0,9.0,17,-99.99,,,-99.99,0.000000,,2013-04-13 11:23:00,
2013-04-13 04:33:00,69.0,21.0,-100.00,South,184,6.0,12.0,16,-99.99,,,-99.99,0.000000,,2013-04-13 11:33:00,
2013-04-13 04:40:00,67.0,23.0,-100.00,ESE,116,2.0,4.0,19,-99.99,,,-99.99,0.000000,,2013-04-13 11:40:00,
2013-04-13 04:53:00,68.0,22.0,-100.00,SSW,212,2.0,6.0,17,-99.99,,,-99.99,0.000000,,2013-04-13 11:53:00,
2013-04-13 05:00:00,70.0,24.0,-100.00,South,176,3.0,9.0,18,-99.99,,,-99.99,0.000000,,2013-04-13 12:00:00,
2013-04-13 05:14:00,69.0,22.0,-100.00,South,175,3.0,6.0,17,-99.99,,,-99.99,0.000000,,2013-04-13 12:14:00,
2013-04-13 05:34:00,67.0,23.0,-100.00,ESE,116,2.0,4.0,19,-99.99,,,-99.99,0.000000,,2013-04-13 12:34:00,
2013-04-13 05:53:00,70.0,24.0,-100.00,South,176,3.0,9.0,18,-99.99,,,-99.99,0.000000,,2013-04-13 12:53:00,
2013-04-13 06:14:00,70.0,25.0,-100.00,SSW,192,5.0,12.0,18,-99.99,,,-99.99,0.000000,,2013-04-13 13:14:00,
2013-04-13 06:30:00,69.0,28.0,-100.00,South,190,2.0,5.0,21,-99.99,,,-99.99,23.000000,,2013-04-13 13:30:00,
2013-04-13 06:53:00,71.0,27.0,-100.00,SSW,192,6.0,12.0,19,-99.99,,,-99.99,0.000000,,2013-04-13 13:53:00,
2013-04-13 07:04:00,70.0,27.0,-100.00,SSW,204,3.0,7.0,20,-99.99,,,-99.99,5.000000,,2013-04-13 14:04:00,
2013-04-13 07:13:00,70.0,27.0,-100.00,South,174,3.0,6.0,20,-99.99,,,-99.99,9.000000,,2013-04-13 14:13:00,
2013-04-13 07:20:00,69.0,29.0,-100.00,East,100,1.0,2.0,23,-99.99,,,-99.99,186.000000,,2013-04-13 14:20:00,
2013-04-13 07:23:00,69.0,28.0,-100.00,South,190,2.0,5.0,21,-99.99,,,-99.99,23.000000,,2013-04-13 14:23:00,
2013-04-13 07:40:00,72.0,30.0,-100.00,ESE,110,2.0,4.0,21,-99.99,,,-99.99,245.000000,,2013-04-13 14:40:00,
2013-04-13 08:00:00,76.0,28.0,-100.00,SSE,156,3.0,8.0,17,-99.99,,,-99.99,301.000000,,2013-04-13 15:00:00,
2013-04-13 08:14:00,69.0,29.0,-100.00,East,100,1.0,2.0,23,-99.99,,,-99.99,186.000000,,2013-04-13 15:14:00,
2013-04-13 08:34:00,72.0,30.0,-100.00,ESE,110,2.0,4.0,21,-99.99,,,-99.99,245.000000,,2013-04-13 15:34:00,
2013-04-13 08:54:00,76.0,28.0,-100.00,SSE,156,3.0,8.0,17,-99.99,,,-99.99,301.000000,,2013-04-13 15:54:00,
2013-04-13 09:14:00,77.0,27.0,-100.00,SSE,154,4.0,9.0,16,-99.99,,,-99.99,392.000000,,2013-04-13 16:14:00,
2013-04-13 09:24:00,77.0,28.0,-100.00,SE,144,4.0,9.0,16,-99.99,,,-99.99,443.000000,,2013-04-13 16:24:00,
2013-04-13 09:34:00,77.0,26.0,-100.00,SSE,160,4.0,9.0,15,-99.99,,,-99.99,368.000000,,2013-04-13 16:34:00,
2013-04-13 09:44:00,77.0,26.0,-100.00,SE,144,3.0,8.0,15,-99.99,,,-99.99,416.000000,,2013-04-13 16:44:00,
2013-04-13 09:53:00,79.0,25.0,-100.00,SSE,155,3.0,8.0,14,-99.99,,,-99.99,536.000000,,2013-04-13 16:53:00,
2013-04-13 10:00:00,81.0,26.0,-100.00,SSW,207,5.0,16.0,13,-99.99,,,-99.99,759.000000,,2013-04-13 17:00:00,
2013-04-13 10:05:00,80.0,26.0,-100.00,South,182,4.0,10.0,14,-99.99,,,-99.99,617.000000,,2013-04-13 17:05:00,
2013-04-13 10:19:00,80.0,27.0,-100.00,South,172,4.0,9.0,14,-99.99,,,-99.99,561.000000,,2013-04-13 17:19:00,
2013-04-13 10:35:00,81.0,26.0,-100.00,SSW,201,5.0,12.0,13,-99.99,,,-99.99,708.000000,,2013-04-13 17:35:00,
2013-04-13 10:43:00,81.0,25.0,-100.00,SSW,196,7.0,15.0,13,-99.99,,,-99.99,786.000000,,2013-04-13 17:43:00,
2013-04-13 11:14:00,82.0,27.0,-100.00,SSW,212,6.0,15.0,13,-99.99,,,-99.99,881.000000,,2013-04-13 18:14:00,
2013-04-13 11:23:00,82.0,27.0,-100.00,SSW,212,6.0,15.0,13,-99.99,,,-99.99,881.000000,,2013-04-13 18:23:00,
2013-04-13 11:32:00,83.0,25.0,-100.00,SSW,213,6.0,16.0,12,-99.99,,,-99.99,902.000000,,2013-04-13 18:32:00,
2013-04-13 11:42:00,84.0,26.0,-100.00,SSW,213,6.0,14.0,12,-99.99,,,-99.99,901.000000,,2013-04-13 18:42:00,
2013-04-13 11:52:00,84.0,26.0,-100.00,SW,219,6.0,22.0,12,-99.99,,,-99.99,964.000000,,2013-04-13 18:52:00,
2013-04-13 12:00:00,85.0,25.0,-100.00,SW,218,7.0,20.0,11,-99.99,,,-99.99,1011.000000,,2013-04-13 19:00:00,
2013-04-13 12:02:00,85.0,27.0,-100.00,SW,218,5.0,19.0,12,-99.99,,,-99.99,1005.000000,,2013-04-13 19:02:00,
2013-04-13 12:12:00,85.0,26.0,-100.00,WSW,250,6.0,18.0,12,-99.99,,,-99.99,987.000000,,2013-04-13 19:12:00,
2013-04-13 12:22:00,85.0,26.0,-100.00,WSW,250,6.0,18.0,12,-99.99,,,-99.99,987.000000,,2013-04-13 19:22:00,
2013-04-13 12:32:00,85.0,27.0,-100.00,SW,220,7.0,20.0,12,-99.99,,,-99.99,988.000000,,2013-04-13 19:32:00,
2013-04-13 12:42:00,85.0,25.0,-100.00,SW,218,7.0,20.0,11,-99.99,,,-99.99,1011.000000,,2013-04-13 19:42:00,
2013-04-13 12:52:00,85.0,25.0,-100.00,SW,218,7.0,20.0,11,-99.99,,,-99.99,1011.000000,,2013-04-13 19:52:00,
2013-04-13 13:12:00,86.0,26.0,-100.00,SW,218,6.0,19.0,11,-99.99,,,-99.99,1060.000000,,2013-04-13 20:12:00,
2013-04-13 13:22:00,86.0,23.0,-100.00,SSW,213,9.0,20.0,10,-99.99,,,-99.99,980.000000,,2013-04-13 20:22:00,
2013-04-13 13:32:00,86.0,23.0,-100.00,SW,223,7.0,17.0,10,-99.99,,,-99.99,984.000000,,2013-04-13 20:32:00,
2013-04-13 13:42:00,87.0,24.0,-100.00,SW,227,6.0,16.0,10,-99.99,,,-99.99,1052.000000,,2013-04-13 20:42:00,
2013-04-13 13:52:00,87.0,24.0,-100.00,SW,227,6.0,16.0,10,-99.99,,,-99.99,1052.000000,,2013-04-13 20:52:00,
2013-04-13 14:02:00,88.0,24.0,-100.00,SW,231,7.0,17.0,10,-99.99,,,-99.99,1020.000000,,2013-04-13 21:02:00,
2013-04-13 14:12:00,86.0,21.0,-100.00,SSW,210,10.0,20.0,9,-99.99,,,-99.99,971.000000,,2013-04-13 21:12:00,
2013-04-13 14:22:00,86.0,21.0,-100.00,SSW,210,10.0,20.0,9,-99.99,,,-99.99,971.000000,,2013-04-13 21:22:00,
2013-04-13 14:32:00,87.0,21.0,-100.00,SW,215,7.0,20.0,9,-99.99,,,-99.99,1067.000000,,2013-04-13 21:32:00,
2013-04-13 14:43:00,87.0,21.0,-100.00,SW,219,8.0,26.0,9,-99.99,,,-99.99,946.000000,,2013-04-13 21:43:00,
2013-04-13 14:52:00,87.0,21.0,-100.00,SW,219,8.0,26.0,9,-99.99,,,-99.99,946.000000,,2013-04-13 21:52:00,
2013-04-13 15:02:00,86.0,23.0,-100.00,SSW,206,8.0,20.0,10,-99.99,,,-99.99,776.000000,,2013-04-13 22:02:00,
2013-04-13 15:12:00,87.0,26.0,-100.00,SSW,198,7.0,21.0,11,-99.99,,,-99.99,852.000000,,2013-04-13 22:12:00,
2013-04-13 15:22:00,87.0,26.0,-100.00,SSW,198,7.0,21.0,11,-99.99,,,-99.99,852.000000,,2013-04-13 22:22:00,
2013-04-13 15:30:00,88.0,22.0,-100.00,SSW,210,8.0,22.0,9,-99.99,,,-99.99,751.000000,,2013-04-13 22:30:00,
2013-04-13 15:32:00,87.0,26.0,-100.00,SSW,204,8.0,19.0,11,-99.99,,,-99.99,910.000000,,2013-04-13 22:32:00,
2013-04-13 15:42:00,87.0,26.0,-100.00,SW,228,7.0,22.0,11,-99.99,,,-99.99,550.000000,,2013-04-13 22:42:00,
2013-04-13 15:52:00,87.0,26.0,-100.00,SW,228,7.0,22.0,11,-99.99,,,-99.99,550.000000,,2013-04-13 22:52:00,
2013-04-13 16:02:00,87.0,24.0,-100.00,WSW,247,8.0,17.0,10,-99.99,,,-99.99,697.000000,,2013-04-13 23:02:00,
2013-04-13 16:12:00,88.0,24.0,-100.00,SW,225,5.0,12.0,10,-99.99,,,-99.99,616.000000,,2013-04-13 23:12:00,
2013-04-13 16:22:00,88.0,22.0,-100.00,SSW,210,8.0,22.0,9,-99.99,,,-99.99,751.000000,,2013-04-13 23:22:00,
2013-04-13 16:30:00,88.0,19.0,-100.00,SW,234,9.0,22.0,8,-99.99,,,-99.99,573.000000,,2013-04-13 23:30:00,
2013-04-13 17:02:00,88.0,19.0,-100.00,SW,220,9.0,19.0,8,-99.99,,,-99.99,590.000000,,2013-04-14 00:02:00,
2013-04-13 17:12:00,88.0,19.0,-100.00,SW,234,9.0,22.0,8,-99.99,,,-99.99,573.000000,,2013-04-14 00:12:00,
2013-04-13 17:22:00,88.0,19.0,-100.00,SW,234,9.0,22.0,8,-99.99,,,-99.99,573.000000,,2013-04-14 00:22:00,
2013-04-13 17:42:00,88.0,22.0,-100.00,SW,224,6.0,16.0,9,-99.99,,,-99.99,462.000000,,2013-04-14 00:42:00,
2013-04-13 17:50:00,86.0,23.0,-100.00,SSW,210,8.0,19.0,10,-99.99,,,-99.99,307.000000,,2013-04-14 00:50:00,
2013-04-13 17:52:00,88.0,22.0,-100.00,SW,224,6.0,16.0,9,-99.99,,,-99.99,462.000000,,2013-04-14 00:52:00,
2013-04-13 18:02:00,88.0,22.0,-100.00,SW,221,5.0,20.0,9,-99.99,,,-99.99,437.000000,,2013-04-14 01:02:00,
2013-04-13 18:12:00,88.0,22.0,-100.00,SW,226,7.0,16.0,9,-99.99,,,-99.99,344.000000,,2013-04-14 01:12:00,
2013-04-13 18:22:00,87.0,21.0,-100.00,SW,218,7.0,18.0,9,-99.99,,,-99.99,283.000000,,2013-04-14 01:22:00,
2013-04-13 18:32:00,87.0,24.0,-100.00,SSW,213,8.0,21.0,10,-99.99,,,-99.99,298.000000,,2013-04-14 01:32:00,
2013-04-13 18:42:00,86.0,23.0,-100.00,SSW,210,8.0,19.0,10,-99.99,,,-99.99,307.000000,,2013-04-14 01:42:00,